Regional Weather Roundup
Issued by NWS Kansas City/Pleasant Hill, MO

Home | Current Version | Previous Version | Graphics & Text | Print | Product List | Glossary Off
Versions: 1 2 3 4 5 6 7 8 9 10 11 12 13 14 15 16 17 18 19 20 21 22 23 24 25 26 27 28 29 30 31 32 33 34 35 36 37 38 39 40 41 42 43 44 45 46 47 48 49 50

000
ASUS43 KEAX 042110
RWREAX

WEATHER ROUNDUP FOR EASTERN KANSAS AND NORTHWEST MISSOURI
NATIONAL WEATHER SERVICE KANSAS CITY/PLEASANT HILL MO
400 PM CDT MON MAY 04 2015

KSZ040-057-103>105-MOZ028-029-037-043-042200-
...KANSAS CITY METROPOLITAN AREA...

CITY           SKY/WX    TMP DP  RH WIND       PRES   REMARKS
K.C. INTL      MOSUNNY   82  59  45 SE13      29.99F
K.C. DOWNTOWN  MOSUNNY   84  60  44 S12       29.98F
LEES SUMMIT    FAIR      81  61  50 S9G20     30.02F
OLATHE - IXD   MOSUNNY   84  61  45 S15       30.00F
OLATHE - OJC   MOSUNNY   83  61  47 S13       29.99F
LAWRENCE       MOSUNNY   85  59  41 S18G25    29.97F

$$

MOZ001>008-011>017-020>025-030>033-038>040-044>046-053-054-042200-
...NORTHERN AND CENTRAL MISSOURI...

CITY           SKY/WX    TMP DP  RH WIND       PRES   REMARKS
ST. JOSEPH     PTSUNNY   81  61  50 SE12      29.99F
MOSBY          PTCLDY    81  59  47 S8        29.99F
WARRENSBURG    PTSUNNY   81  59  47 S14       30.03F
WHITEMAN AFB   PTSUNNY   82  63  51 S15       30.03F
CLINTON        PTSUNNY   82  64  54 S13       30.05F
SEDALIA        PTSUNNY   83  62  49 S12       30.06F
WARSAW         NOT AVBL
MARSHALL       PTSUNNY   84  64  51 S10G17    30.04F
CHILLICOTHE      N/A     80  61  52 VRB6      30.03F
MOBERLY        CLOUDY    77  59  53 S9        30.08F
KIRKSVILLE     CLOUDY    77  64  64 S12       30.06F

$$

MOZ041-047>049-056>058-063>065-088>090-097-042200-
...EASTERN AND SOUTHERN MISSOURI...

CITY           SKY/WX    TMP DP  RH WIND       PRES   REMARKS
ST. LOUIS INTL CLOUDY    85  58  39 SW8       30.07F
SPIRIT OF STL  CLOUDY    82  56  40 SW10      30.06F
COLUMBIA       PTSUNNY   81  60  48 SW14      30.06F
JEFFERSON CITY MOSUNNY   83  58  42 S9        30.05F
MEXICO         CLOUDY    79  64  61 W9        30.08F
HANNIBAL       CLOUDY    79  57  47 SW10      30.07S
ROLLA          PTSUNNY   80  57  45 S12       30.08F
LEBANON        PTSUNNY   81  55  41 S9        30.10F
OSAGE BEACH    MOSUNNY  N/A N/A N/A SW14      30.07F
SPRINGFIELD    MOSUNNY   81  59  47 SW10      30.08F
BRANSON        PTSUNNY   73  55  53 S9        30.12F
NEVADA         PTSUNNY   79  63  57 S16       30.06F
JOPLIN         MOSUNNY   81  62  52 S14       30.07F
WEST PLAINS    PTSUNNY   79  52  38 S12       30.14F

$$

IAZ060-094-KSZ022-034>040-054-083-096-NEZ052-066-093-042200-
...KANSAS...SOUTHEAST NEBRASKA AND IOWA...

CITY           SKY/WX    TMP DP  RH WIND       PRES   REMARKS
TOPEKA         PTSUNNY   84  58  40 S15G24    29.96F
MANHATTAN      TSTM      66  62  87 NW14G20   29.96F VSB 3/4
EMPORIA        PTSUNNY   82  60  47 S21G26    29.98F
CHANUTE        PTSUNNY   81  62  52 S18G24    30.03F
WICHITA        PTSUNNY   82  61  48 S21G28    29.98F
OMAHA          CLOUDY    65  60  84 N8        30.08F
LINCOLN        LGT RAIN  59  55  87 N14       30.08F FOG
FALLS CITY     CLOUDY    70  62  76 NE10      30.00F
LAMONI         PTSUNNY   74  62  66 E9        30.05F
DES MOINES     LGT RAIN  69  61  75 NE12      30.05F

$$



USA.gov is the U.S. government's official web portal to all federal, state and local government web resources and services.